TimeCST,TemperatureF,Dew PointF,Humidity,Sea Level PressureIn,VisibilityMPH,Wind Direction,Wind SpeedMPH,Gust SpeedMPH,PrecipitationIn,Events,Conditions,WindDirDegrees,DateUTC
12:15 AM,37.4,32.0,81,30.34,10.0,East,3.5,-,N/A,,Clear,90,2013-12-28 06:15:00
12:35 AM,39.2,32.0,75,30.34,10.0,East,4.6,-,N/A,,Clear,100,2013-12-28 06:35:00
12:55 AM,39.2,32.0,75,30.34,10.0,East,3.5,-,N/A,,Clear,90,2013-12-28 06:55:00
1:15 AM,37.4,32.0,81,30.34,10.0,Calm,Calm,-,N/A,,Clear,0,2013-12-28 07:15:00
1:35 AM,39.2,32.0,75,30.34,10.0,East,3.5,-,N/A,,Clear,80,2013-12-28 07:35:00
1:55 AM,37.4,32.0,81,30.34,10.0,East,4.6,-,N/A,,Clear,100,2013-12-28 07:55:00
2:15 AM,37.4,33.8,87,30.34,10.0,East,4.6,-,N/A,,Clear,90,2013-12-28 08:15:00
2:35 AM,37.4,33.8,87,30.34,10.0,East,4.6,-,N/A,,Clear,90,2013-12-28 08:35:00
2:55 AM,37.4,33.8,87,30.35,10.0,Calm,Calm,-,N/A,,Clear,0,2013-12-28 08:55:00
3:15 AM,37.4,33.8,87,30.34,10.0,East,3.5,-,N/A,,Clear,100,2013-12-28 09:15:00
3:35 AM,35.6,35.6,100,30.32,10.0,East,4.6,-,N/A,,Clear,80,2013-12-28 09:35:00
3:55 AM,37.4,33.8,87,30.30,10.0,East,3.5,-,N/A,,Clear,90,2013-12-28 09:55:00
4:15 AM,41.0,33.8,76,30.30,10.0,East,5.8,-,N/A,,Clear,90,2013-12-28 10:15:00
4:35 AM,41.0,32.0,70,30.30,10.0,East,4.6,-,N/A,,Scattered Clouds,100,2013-12-28 10:35:00
4:55 AM,41.0,33.8,76,30.29,10.0,East,6.9,-,N/A,,Scattered Clouds,80,2013-12-28 10:55:00
5:15 AM,41.0,33.8,76,30.29,10.0,Calm,Calm,-,N/A,,Mostly Cloudy,0,2013-12-28 11:15:00
5:35 AM,41.0,33.8,76,30.31,10.0,Calm,Calm,-,N/A,,Overcast,0,2013-12-28 11:35:00
5:55 AM,42.8,32.0,66,30.30,10.0,East,4.6,-,N/A,,Overcast,100,2013-12-28 11:55:00
6:15 AM,41.0,32.0,70,30.29,10.0,East,5.8,-,N/A,,Overcast,100,2013-12-28 12:15:00
6:35 AM,41.0,32.0,70,30.30,10.0,East,5.8,-,N/A,,Overcast,80,2013-12-28 12:35:00
6:55 AM,42.8,32.0,66,30.30,10.0,East,6.9,-,N/A,,Overcast,100,2013-12-28 12:55:00
7:15 AM,42.8,32.0,66,30.29,10.0,East,9.2,-,N/A,,Overcast,90,2013-12-28 13:15:00
7:35 AM,42.8,32.0,66,30.28,10.0,East,8.1,-,N/A,,Overcast,100,2013-12-28 13:35:00
7:55 AM,42.8,32.0,66,30.29,10.0,ESE,5.8,-,N/A,,Overcast,110,2013-12-28 13:55:00
8:15 AM,42.8,32.0,66,30.29,10.0,ESE,5.8,-,N/A,,Overcast,110,2013-12-28 14:15:00
8:35 AM,42.8,32.0,66,30.29,10.0,SE,4.6,-,N/A,,Overcast,130,2013-12-28 14:35:00
8:55 AM,42.8,32.0,66,30.29,10.0,ESE,6.9,-,N/A,,Mostly Cloudy,120,2013-12-28 14:55:00
9:15 AM,42.8,33.8,70,30.31,10.0,ESE,5.8,-,N/A,Rain,Light Rain,120,2013-12-28 15:15:00
9:35 AM,42.8,35.6,76,30.31,10.0,ESE,5.8,-,N/A,,Light Drizzle,110,2013-12-28 15:35:00
9:55 AM,41.0,35.6,81,30.32,7.0,ESE,3.5,-,N/A,Rain,Rain,110,2013-12-28 15:55:00
10:15 AM,41.0,37.4,87,30.32,7.0,East,4.6,-,0.01,Rain,Light Rain,100,2013-12-28 16:15:00
10:35 AM,41.0,39.2,93,30.32,7.0,ESE,4.6,-,0.02,Rain,Light Rain,110,2013-12-28 16:35:00
10:55 AM,41.0,39.2,93,30.31,7.0,East,3.5,-,0.02,Rain,Light Rain,100,2013-12-28 16:55:00
11:15 AM,41.0,41.0,100,30.29,7.0,East,4.6,-,0.01,Rain,Light Rain,90,2013-12-28 17:15:00
11:35 AM,41.0,41.0,100,30.27,7.0,East,5.8,-,0.02,Rain,Light Rain,80,2013-12-28 17:35:00
11:55 AM,41.0,41.0,100,30.26,7.0,ENE,4.6,-,0.03,Rain,Light Rain,60,2013-12-28 17:55:00
12:15 PM,41.0,41.0,100,30.25,7.0,NE,3.5,-,N/A,Rain,Light Rain,50,2013-12-28 18:15:00
12:35 PM,41.0,41.0,100,30.25,7.0,Calm,Calm,-,0.01,Rain,Light Rain,0,2013-12-28 18:35:00
12:55 PM,41.0,-9999,N/A,30.25,4.0,East,3.5,-,0.03,Rain,Rain,80,2013-12-28 18:55:00
1:15 PM,41.0,-9999,N/A,30.23,4.0,East,4.6,-,0.01,Rain,Light Rain,80,2013-12-28 19:15:00
1:35 PM,41.0,-9999,N/A,30.21,7.0,ENE,5.8,-,0.02,,Mostly Cloudy,70,2013-12-28 19:35:00
1:55 PM,41.0,-9999,N/A,30.18,7.0,East,5.8,-,0.02,Rain,Light Rain,90,2013-12-28 19:55:00
2:15 PM,41.0,-9999,N/A,30.17,7.0,ENE,5.8,-,0.01,Rain,Light Rain,70,2013-12-28 20:15:00
2:35 PM,41.0,-9999,N/A,30.14,7.0,East,8.1,-,0.01,Rain,Light Rain,80,2013-12-28 20:35:00
2:55 PM,41.0,41.0,100,30.16,7.0,East,8.1,-,0.01,Rain,Rain,100,2013-12-28 20:55:00
3:15 PM,41.0,41.0,100,30.15,5.0,East,10.4,-,N/A,Rain,Light Rain,90,2013-12-28 21:15:00
3:35 PM,39.2,-9999,N/A,30.16,7.0,East,4.6,-,0.01,Rain,Rain,80,2013-12-28 21:35:00
3:55 PM,39.2,-9999,N/A,30.14,2.0,East,6.9,-,0.05,Rain,Rain,90,2013-12-28 21:55:00
4:15 PM,39.2,-9999,N/A,30.10,5.0,East,8.1,17.3,0.02,Rain,Light Rain,80,2013-12-28 22:15:00
4:35 PM,37.4,-9999,N/A,30.09,3.0,East,15.0,20.7,0.06,Rain,Rain,90,2013-12-28 22:35:00
4:55 PM,37.4,-9999,N/A,30.08,2.5,East,13.8,23.0,0.12,Rain,Rain,90,2013-12-28 22:55:00
5:15 PM,37.4,-9999,N/A,30.09,4.0,East,4.6,-,0.02,Rain,Rain,90,2013-12-28 23:15:00
5:35 PM,37.4,-9999,N/A,30.08,3.0,East,9.2,17.3,0.06,Rain,Rain,90,2013-12-28 23:35:00
5:55 PM,37.4,-9999,N/A,30.06,3.0,East,13.8,20.7,0.11,Rain,Heavy Rain,90,2013-12-28 23:55:00
6:15 PM,37.4,-9999,N/A,30.04,2.5,East,16.1,24.2,0.04,Rain,Rain,90,2013-12-29 00:15:00
6:35 PM,39.2,-9999,N/A,30.04,2.0,East,12.7,24.2,0.11,Rain,Rain,90,2013-12-29 00:35:00
6:55 PM,37.4,-9999,N/A,30.02,2.0,ENE,15.0,24.2,0.17,Rain,Light Rain,70,2013-12-29 00:55:00
7:15 PM,37.4,-9999,N/A,30.01,2.5,East,15.0,21.9,0.06,Rain,Rain,80,2013-12-29 01:15:00
7:35 PM,37.4,-9999,N/A,30.00,2.0,East,10.4,21.9,0.13,Rain,Light Rain,80,2013-12-29 01:35:00
7:55 PM,39.2,-9999,N/A,30.00,3.0,ENE,10.4,18.4,0.20,Rain,Rain,70,2013-12-29 01:55:00
8:15 PM,39.2,-9999,N/A,30.01,1.2,Calm,Calm,-,0.07,Rain,Light Rain,0,2013-12-29 02:15:00
8:35 PM,39.2,-9999,N/A,30.02,2.5,Calm,Calm,-,0.10,Rain,Rain,0,2013-12-29 02:35:00
8:55 PM,39.2,-9999,N/A,30.00,2.0,ENE,3.5,-,0.13,Rain,Rain,70,2013-12-29 02:55:00
9:15 PM,39.2,-9999,N/A,29.99,4.0,East,4.6,-,0.01,Rain,Rain,90,2013-12-29 03:15:00
9:35 PM,41.0,-9999,N/A,29.99,5.0,East,4.6,-,0.02,,Drizzle,80,2013-12-29 03:35:00
9:55 PM,41.0,-9999,N/A,29.98,4.0,East,3.5,-,0.04,Rain,Rain,80,2013-12-29 03:55:00
10:15 PM,41.0,-9999,N/A,29.97,3.0,ENE,5.8,-,0.01,,Drizzle,70,2013-12-29 04:15:00
10:35 PM,41.0,-9999,N/A,29.96,3.0,East,6.9,-,0.02,,Drizzle,80,2013-12-29 04:35:00
10:55 PM,41.0,-9999,N/A,29.94,3.0,ENE,4.6,-,0.03,,Drizzle,70,2013-12-29 04:55:00
11:15 PM,41.0,-9999,N/A,29.94,3.0,East,9.2,-,0.01,,Heavy Drizzle,80,2013-12-29 05:15:00
11:35 PM,41.0,-9999,N/A,29.92,4.0,East,8.1,-,0.02,,Drizzle,90,2013-12-29 05:35:00
11:55 PM,41.0,-9999,N/A,29.91,5.0,ENE,5.8,-,0.02,Rain,Light Rain,70,2013-12-29 05:55:00